Wind_Speed
27 29 31 33 34 35 36 37 38 38 37 37 37 37 37 37 37 36 33 31 28 27 27 32 36 40 42 41 40 40 39 37 36 34 33 32 32 31 30 29 27 26 24
25 27 28 29 31 33 34 35 36 37 37 37 38 38 38 38 37 36 34 31 28 26 24 28 34 39 40 41 41 39 38 37 36 34 33 32 31 30 30 29 27 26 23
25 27 29 31 32 33 34 36 37 38 39 40 40 40 39 39 38 37 35 33 30 27 26 26 29 33 36 38 40 39 37 36 35 34 32 31 31 30 29 29 28 26 23
27 28 31 32 34 35 36 38 39 40 40 41 42 42 41 40 39 38 37 35 33 31 29 28 28 28 30 33 35 36 35 35 35 34 33 32 31 30 30 29 28 27 25
29 31 33 34 35 35 37 38 39 41 42 43 43 43 43 42 41 40 38 38 36 35 34 33 32 31 31 32 34 34 34 35 35 35 34 33 32 32 32 31 30 28 27
31 32 33 34 35 36 38 39 40 42 44 45 45 45 44 43 42 41 40 39 39 38 38 38 37 36 36 36 37 37 37 36 37 37 37 36 35 35 34 34 32 31 29
32 32 33 34 36 37 39 41 42 43 44 44 44 43 42 41 40 40 41 41 41 41 41 42 42 42 42 42 42 41 41 40 40 40 40 39 38 38 37 36 35 34 32
32 33 35 36 38 39 40 41 42 42 41 40 39 39 39 39 39 40 41 41 43 44 45 46 47 47 48 48 48 48 46 45 44 43 42 42 42 41 41 39 38 37 35
33 35 37 39 40 41 42 42 41 39 37 37 36 36 37 39 40 42 43 44 44 46 48 49 51 53 54 55 55 55 53 52 49 48 47 46 45 45 44 43 41 40 39
36 38 39 40 41 43 43 42 39 37 36 36 36 37 39 41 43 45 47 48 49 50 51 52 54 56 58 59 61 61 61 60 57 54 52 51 49 49 48 46 45 44 42
37 38 39 41 42 43 42 40 38 37 36 37 38 40 43 45 48 49 51 52 53 55 56 57 58 58 60 62 64 66 67 67 65 62 58 56 55 53 51 50 48 47 45
38 39 40 41 42 42 41 39 38 38 38 39 41 44 47 49 51 52 54 56 57 58 59 60 61 63 63 64 66 68 70 71 71 70 66 62 59 57 55 53 52 50 49
38 39 41 42 43 42 40 39 39 39 40 42 44 47 49 51 53 55 57 59 59 59 59 60 62 64 65 67 68 70 72 73 74 75 74 70 65 61 59 58 55 53 52
40 40 41 43 43 42 40 40 39 40 42 44 47 49 51 53 55 57 58 59 59 59 58 59 61 63 64 66 67 70 73 75 76 76 77 77 73 67 62 60 59 57 54
41 42 42 43 43 41 40 40 40 41 43 46 49 51 53 54 56 58 59 59 58 57 57 58 59 61 63 64 65 67 70 73 76 77 78 79 79 74 69 62 60 60 58
42 42 42 43 43 42 41 40 41 42 45 48 51 52 54 55 57 57 57 55 53 52 51 52 53 56 59 61 62 64 66 68 71 74 76 78 80 79 76 69 63 59 58
43 43 43 44 43 42 42 42 42 44 47 50 52 54 54 56 56 56 54 50 47 46 45 45 46 49 52 54 57 60 61 63 64 67 71 75 78 79 78 77 69 62 57
44 45 45 45 44 44 43 43 44 46 49 52 53 54 54 56 55 54 50 46 42 39 37 36 37 40 44 48 50 53 55 56 57 59 62 68 73 76 77 77 75 69 61
47 47 47 46 46 45 44 44 45 47 50 52 53 53 54 55 54 52 47 42 37 33 30 29 30 33 36 41 44 44 46 48 49 52 54 58 64 71 75 75 74 72 69
48 48 48 48 47 46 45 45 46 47 49 52 52 52 52 53 52 49 44 39 34 29 25 22 23 25 29 34 38 39 39 42 43 45 46 50 54 61 68 71 71 72 71
48 48 48 48 47 46 45 45 46 47 49 51 51 51 51 51 50 46 41 36 31 26 20 16 17 20 24 29 32 34 35 36 38 39 40 41 45 52 58 63 66 68 69
48 48 48 47 47 47 45 45 46 46 48 50 50 49 50 49 47 43 39 34 29 23 16 11 11 16 20 24 27 30 32 33 33 35 36 37 38 41 47 53 58 63 66
48 48 47 46 47 47 46 45 45 46 47 48 48 48 48 47 45 41 37 32 27 21 14 8 6 11 16 21 24 27 30 30 31 32 33 32 32 34 38 43 49 55 60
48 47 46 46 46 46 45 45 44 44 45 46 47 48 46 44 43 39 35 30 25 19 13 7 4 9 12 16 20 24 27 28 28 29 29 29 28 29 31 35 41 47 53
47 46 46 45 45 45 45 44 43 43 44 45 46 46 45 43 40 37 34 29 24 19 13 7 2 6 10 14 18 23 25 25 26 27 27 26 26 26 28 31 35 40 46
46 45 45 45 45 45 44 43 42 42 42 43 44 44 44 42 39 36 32 28 23 19 14 8 1 6 10 13 17 21 23 24 25 25 25 25 25 26 27 30 33 36 43
Wind_Direction
290 292 293 295 295 295 296 297 297 298 297 296 295 295 296 297 299 303 304 302 296 285 272 256 250 249 246 244 245 244 242 241 241 242 242 242 243 243 244 244 244 245 246
296 297 299 300 300 299 299 300 299 297 295 295 294 294 294 295 297 299 300 301 297 289 281 261 252 248 244 243 243 241 240 239 239 240 240 241 241 240 240 240 241 241 240
301 300 301 303 303 302 301 300 299 297 296 295 294 294 294 294 294 294 293 292 291 286 279 273 260 251 246 243 241 238 237 238 239 239 239 239 239 237 236 236 237 237 235
301 301 302 302 302 302 300 299 298 297 296 295 294 293 292 291 290 288 287 285 282 278 274 267 263 258 252 247 242 238 237 237 238 238 239 238 238 237 235 233 233 233 231
301 301 302 302 302 301 300 299 298 297 296 295 294 292 291 290 288 286 284 281 277 273 267 262 259 257 254 251 246 240 238 237 237 237 237 237 236 235 234 232 231 230 230
303 303 303 303 303 302 301 300 298 296 295 293 292 291 289 288 286 285 282 279 275 271 266 261 257 253 251 249 247 243 240 237 236 236 236 235 234 233 232 231 230 229 229
304 305 304 304 304 304 303 301 299 297 295 293 292 290 288 286 284 283 282 279 275 270 266 262 258 254 251 249 248 245 242 238 236 235 235 234 233 232 231 230 230 229 229
308 309 308 308 307 307 306 304 302 300 297 294 292 290 288 287 286 285 283 280 276 272 267 263 259 255 252 249 248 247 244 241 238 236 235 234 232 231 230 230 230 230 230
313 313 313 312 312 312 311 308 306 303 299 296 293 291 289 288 286 285 284 281 278 273 269 264 260 256 253 250 247 245 244 243 240 239 236 234 233 232 231 230 230 231 231
317 316 316 316 316 316 314 312 310 306 302 300 296 293 290 289 288 286 283 281 278 275 271 266 262 257 253 250 247 245 242 241 241 239 237 235 234 233 232 231 231 231 232
320 319 319 319 319 318 317 315 312 308 305 302 300 298 296 294 292 289 286 283 279 275 271 267 262 258 253 249 247 245 242 241 240 238 237 236 235 233 232 232 231 231 232
323 322 322 322 322 321 319 316 313 311 308 306 304 303 302 300 297 293 290 287 282 278 273 268 263 258 253 249 246 243 241 240 239 238 236 234 234 233 232 231 231 231 231
326 325 325 326 326 324 321 317 314 312 311 310 309 308 307 305 302 299 295 291 285 279 273 267 262 258 253 249 245 243 241 239 238 238 236 235 234 233 232 231 230 231 231
330 328 328 329 327 325 322 318 315 314 314 314 314 313 312 309 307 303 298 293 287 280 274 267 261 256 252 249 246 243 240 238 237 236 235 235 234 233 232 230 228 228 229
333 331 330 330 329 326 323 320 318 317 318 318 318 317 315 313 311 308 302 296 290 283 276 268 262 257 252 248 246 244 241 239 237 235 234 234 234 233 231 229 227 227 227
334 332 332 332 330 328 325 322 321 322 322 323 323 321 319 317 316 313 308 302 295 287 280 271 262 255 250 246 244 242 241 239 237 235 234 233 232 232 231 230 228 225 225
335 334 334 333 332 330 327 325 324 325 326 326 326 325 324 322 320 318 314 309 301 292 283 273 262 253 247 243 240 239 238 237 236 235 234 233 232 231 231 231 229 228 225
336 335 335 334 334 332 330 328 328 328 329 330 329 329 328 327 326 323 321 316 309 299 288 274 261 252 243 238 236 235 233 233 233 233 233 232 232 231 230 231 231 231 227
337 336 336 336 336 334 331 330 330 331 332 333 333 332 332 332 331 330 327 323 317 308 295 278 262 250 240 233 230 230 228 228 229 230 230 231 232 231 230 230 231 231 230
337 336 336 335 336 335 333 332 332 333 334 335 336 336 335 336 336 335 333 330 325 316 302 283 261 245 236 228 225 223 222 223 222 223 225 228 229 230 230 230 230 230 230
336 336 336 335 335 335 334 333 334 335 336 337 338 338 339 339 340 340 339 336 333 327 314 291 260 239 229 223 220 217 216 216 215 216 216 220 225 227 229 229 229 229 229
336 336 335 335 335 336 335 335 336 337 338 340 341 341 342 343 344 345 344 343 341 338 328 303 257 232 223 217 215 213 209 207 208 209 210 213 218 222 224 226 227 227 227
336 336 335 335 336 337 337 337 337 338 340 342 344 345 345 346 348 348 348 348 346 344 338 321 253 221 216 213 211 208 203 202 202 203 203 207 212 215 219 222 224 225 225
336 336 336 336 337 338 338 338 338 339 341 344 346 348 348 349 350 351 352 352 353 350 344 330 257 213 207 204 202 199 197 197 198 200 201 204 208 212 215 218 221 223 223
338 338 338 338 338 339 339 339 339 341 343 345 348 350 351 352 352 354 355 356 356 356 353 340 271 204 196 194 191 190 192 195 198 200 201 203 208 213 217 219 220 221 219
341 340 339 339 339 340 340 340 340 342 344 347 349 351 353 355 355 356 357 359 360 360 360 358 314 195 191 190 189 190 193 196 198 200 203 207 212 217 222 223 222 220 216
Height
5855 5853 5850 5847 5844 5841 5837 5834 5830 5827 5824 5821 5818 5816 5812 5809 5805 5801 5797 5792 5788 5787 5785 5786 5788 5790 5793 5796 5799 5802 5804 5807 5810 5812 5815 5817 5819 5822 5824 5826 5828 5830 5832
5849 5846 5843 5840 5837 5833 5830 5826 5822 5819 5816 5812 5810 5807 5804 5800 5797 5794 5790 5787 5784 5782 5780 5781 5781 5782 5784 5787 5790 5793 5796 5798 5801 5804 5807 5810 5813 5815 5817 5820 5822 5825 5827
5843 5840 5837 5833 5830 5826 5822 5818 5815 5811 5807 5803 5800 5797 5794 5791 5788 5785 5783 5780 5779 5777 5776 5776 5776 5776 5777 5779 5781 5784 5787 5790 5793 5796 5800 5803 5806 5808 5811 5813 5816 5819 5821
5838 5834 5831 5827 5823 5819 5815 5811 5806 5802 5798 5794 5790 5787 5784 5781 5778 5776 5774 5772 5771 5770 5769 5769 5769 5769 5770 5771 5772 5775 5778 5781 5784 5788 5792 5795 5798 5802 5804 5807 5810 5813 5815
5832 5829 5825 5821 5817 5812 5808 5803 5798 5793 5788 5784 5780 5776 5773 5770 5768 5766 5764 5762 5761 5761 5761 5761 5761 5761 5762 5763 5764 5766 5769 5772 5775 5779 5783 5787 5790 5794 5797 5801 5804 5807 5810
5826 5822 5818 5814 5809 5805 5800 5795 5790 5784 5778 5774 5769 5765 5762 5759 5756 5754 5753 5752 5750 5750 5750 5750 5750 5751 5752 5753 5755 5756 5759 5763 5766 5770 5774 5778 5782 5786 5790 5794 5797 5800 5804
5820 5815 5811 5806 5802 5797 5791 5785 5780 5774 5768 5763 5758 5754 5750 5747 5745 5743 5741 5740 5739 5738 5738 5738 5739 5740 5741 5743 5745 5746 5749 5752 5756 5760 5764 5768 5773 5777 5781 5786 5790 5793 5797
5812 5807 5802 5797 5792 5787 5781 5775 5769 5763 5757 5752 5747 5743 5740 5736 5734 5731 5729 5727 5726 5725 5725 5725 5725 5727 5728 5730 5733 5735 5738 5741 5745 5749 5753 5758 5762 5767 5772 5777 5782 5786 5789
5804 5799 5793 5788 5782 5776 5770 5763 5756 5751 5746 5741 5737 5733 5729 5726 5722 5719 5717 5714 5712 5711 5710 5710 5710 5712 5713 5716 5719 5722 5725 5729 5733 5738 5742 5746 5751 5757 5762 5767 5772 5777 5781
5796 5791 5784 5778 5771 5765 5758 5751 5745 5740 5735 5730 5726 5723 5719 5714 5710 5706 5703 5700 5697 5695 5693 5692 5693 5694 5696 5699 5702 5705 5709 5714 5719 5724 5729 5734 5739 5745 5751 5756 5762 5767 5772
5789 5783 5776 5769 5762 5755 5747 5741 5735 5730 5725 5720 5715 5710 5706 5700 5695 5690 5686 5682 5678 5676 5674 5672 5672 5673 5675 5678 5682 5686 5691 5697 5702 5708 5715 5721 5727 5732 5738 5745 5751 5756 5762
5782 5775 5768 5761 5753 5745 5738 5731 5725 5720 5714 5709 5703 5697 5691 5685 5678 5672 5666 5661 5656 5653 5650 5649 5649 5650 5652 5656 5660 5665 5670 5677 5684 5690 5698 5705 5711 5718 5725 5731 5738 5745 5751
5775 5767 5760 5752 5744 5736 5728 5721 5715 5709 5703 5697 5690 5683 5676 5668 5660 5652 5644 5637 5632 5628 5625 5623 5623 5625 5627 5631 5636 5642 5648 5655 5663 5671 5679 5687 5694 5702 5709 5717 5724 5732 5739
5767 5759 5751 5743 5735 5727 5719 5712 5705 5699 5692 5684 5677 5669 5660 5650 5641 5631 5622 5614 5607 5602 5599 5598 5598 5599 5602 5606 5611 5618 5625 5633 5641 5650 5659 5668 5677 5686 5693 5700 5709 5717 5725
5760 5752 5744 5735 5727 5718 5710 5703 5695 5688 5680 5672 5663 5654 5644 5633 5622 5611 5600 5590 5582 5576 5572 5571 5571 5573 5577 5582 5588 5594 5601 5610 5619 5629 5638 5648 5658 5669 5677 5685 5693 5702 5711
5754 5745 5736 5728 5719 5710 5702 5694 5686 5678 5669 5660 5650 5639 5628 5617 5604 5592 5579 5567 5558 5551 5546 5544 5545 5548 5553 5559 5566 5572 5580 5589 5599 5608 5618 5628 5638 5650 5661 5670 5679 5687 5696
5747 5738 5729 5720 5711 5702 5693 5684 5675 5667 5657 5647 5636 5625 5613 5601 5587 5573 5559 5547 5537 5530 5525 5522 5523 5526 5531 5537 5545 5552 5561 5570 5580 5590 5599 5609 5620 5631 5642 5654 5664 5673 5683
5740 5731 5722 5713 5703 5693 5683 5674 5665 5656 5646 5636 5624 5612 5599 5586 5572 5557 5543 5531 5521 5513 5507 5504 5504 5507 5513 5519 5527 5535 5545 5555 5564 5574 5583 5592 5603 5614 5625 5636 5648 5659 5670
5732 5723 5713 5704 5695 5685 5675 5666 5656 5646 5636 5625 5613 5600 5587 5573 5559 5544 5531 5519 5509 5501 5495 5492 5491 5493 5498 5505 5513 5522 5532 5542 5551 5560 5569 5578 5587 5597 5610 5622 5635 5647 5657
5725 5716 5705 5696 5687 5677 5667 5658 5648 5638 5627 5616 5604 5591 5577 5563 5549 5534 5522 5510 5501 5492 5486 5483 5483 5485 5489 5495 5503 5512 5522 5532 5541 5551 5559 5567 5575 5583 5594 5607 5619 5631 5643
5719 5709 5699 5688 5679 5670 5660 5650 5641 5630 5619 5608 5596 5583 5569 5555 5541 5528 5516 5505 5495 5487 5481 5478 5477 5479 5483 5489 5497 5506 5515 5524 5532 5541 5549 5557 5564 5573 5583 5595 5606 5617 5629
5713 5703 5693 5682 5672 5663 5653 5644 5634 5623 5612 5601 5589 5576 5563 5550 5536 5523 5512 5501 5492 5485 5479 5476 5476 5477 5481 5487 5494 5502 5510 5518 5526 5534 5542 5550 5557 5565 5574 5584 5594 5604 5617
5707 5697 5687 5676 5666 5656 5646 5637 5628 5617 5606 5595 5583 5571 5558 5545 5533 5521 5510 5500 5492 5485 5480 5477 5477 5478 5482 5486 5492 5499 5507 5515 5523 5530 5538 5545 5552 5559 5567 5575 5583 5593 5605
5700 5690 5680 5671 5661 5650 5640 5631 5622 5612 5601 5590 5579 5567 5555 5543 5531 5520 5509 5500 5492 5486 5481 5479 5478 5479 5482 5486 5491 5497 5505 5512 5519 5527 5534 5541 5547 5554 5561 5567 5575 5584 5595
5694 5684 5674 5665 5655 5645 5635 5626 5616 5607 5597 5587 5576 5564 5553 5541 5530 5520 5510 5501 5494 5488 5483 5480 5479 5480 5483 5487 5491 5497 5504 5511 5517 5524 5531 5538 5544 5549 5555 5561 5568 5576 5585
5688 5679 5669 5659 5650 5640 5631 5622 5612 5603 5593 5584 5573 5562 5551 5540 5530 5520 5511 5503 5496 5490 5486 5483 5482 5482 5485 5488 5493 5498 5504 5510 5516 5522 5528 5534 5539 5544 5549 5555 5561 5568 5576